www.pogodaiklimat.ru

АРХИВ ПОГОДЫ в Атлантик-Сити

Время (UTC), дата Ветер
(напр.,м/с)
 
Видим.   Явления Облачность Т
(С)
Тd
(С)
f
(%)
Тe
(С)
Тes
(С)
Комфортность

P
(гПа)

Po
(гПа)
Тmin
(С)
Tmax
(С)
R
(мм)
SD
(см)
06:54 22.03 СЗ  6 км  слабый дождь, дымка  10/10 210 м  +7.8  +7.8  100  +5  +5    991.3  989.4         
07:54 22.03 СЗ  10 км  слабый дождь, дымка  10/10 180 м  +7.8  +7.8  100  +4  +4    991.0  989.1      5.3   
08:54 22.03 СЗ  9
{14} 
8 км  слабый дождь, дымка  10/10 240 м  +7.2  +7.2  100  +1  +1    991.9  989.8         
09:15 22.03 СЗ  11
{17} 
8 км  дымка  10/10 300 м  +6.7  +6.1  96  0  0      990.1         
09:54 22.03 СЗ  10
{17} 
16 км  слабый дождь  10/10 330 м  +5.6  +5.0  96  -1  -1    993.0  990.8         
10:14 22.03 СЗ  13
{18} 
16 км    10/10 450 м  +5.6  +4.4  92  -2  -2      991.1         
10:29 22.03 СЗ  11
{17} 
10 км  слабый дождь, дымка  10/10 420 м  +5.6  +5.0  96  -2  -2      991.5         
10:54 22.03 СЗ  13
{18} 
16 км    10/10 450 м  +5.6  +5.0  96  -2  -2    993.9  991.8  +5.6  +8.3  6.4   
11:54 22.03 З  13
{18} 
16 км    10/10 450 м  +4.4  +3.9  97  -4  -4    995.3  993.1         
12:54 22.03 СЗ  11
{17} 
10 км  слабый дождь, дымка  10/10 420 м  +5.6  +5.0  96  -1  -1    996.2  994.2         
13:54 22.03 З  9
{16} 
13 км    8/8 420 м  +6.7  +5.6  93  +1  +1    997.1  995.2         
14:01 22.03 З  13
{18} 
14 км    10/10 600 м  +7.0  +6.0  93  0  0      995.2         
14:54 22.03 СЗ  13
{18} 
16 км    8/8 780 м
[средняя] 
+7.8  +3.3  73  +2  +2    997.6  995.5         
15:54 22.03 З  12
{18} 
16 км    10/10 1260 м  +8.3  +1.1  60  +3  +3    998.2  996.2         
16:54 22.03 СЗ  10
{19} 
16 км    10/10 1380 м  +8.9  +0.6  56  +4  +4    998.3  996.2  +4.4  +9.4     
17:54 22.03 З  13
{18} 
16 км    10/10 1500 м  +8.9  0.0  54  +4  +4    998.1  996.2         
18:54 22.03 З  11
{17} 
16 км    8/8 1800 м  +9.4  -0.6  50  +5  +5    998.2  996.2         
19:54 22.03 З  9
{13} 
16 км    10/5 1650 м
[средняя] 
+10.6  -0.6  46  +7  +7    998.5  996.5         
20:54 22.03 З  8
{15} 
16 км    2/2 1800 м  +10.6  -1.7  42  +7  +7    998.8  996.9         
21:54 22.03 З  10
{16} 
16 км    5/2 1500 м
[средняя] 
+8.9  0.0  54  +4  +4    1000.2  998.2         
22:54 22.03 СЗ  8
{23} 
8 км  слабый дождь  8/8 900 м  +5.0  +1.7  79  -1  -1    1001.7  999.6  +5.0  +10.6  0.3   
23:54 22.03 З  16 км    2/2 1800 м  +4.4  +1.7  83  -1  -1    1002.5  1000.2         
00:54 23.03 З  16 км    2/2 1080 м  +4.4  +0.6  76  -1  -1    1003.4  1001.3         
01:54 23.03 З  10
{16} 
16 км    8/8 1650 м  +5.0  -1.1  65  -1  -1    1003.8  1001.6         
02:54 23.03 З  9
{14} 
16 км    ясно  +5.0  -2.8  57  -1  -1    1004.4  1002.3         
03:54 23.03 З  8
{13} 
16 км    ясно  +4.4  -4.4  53  -1  -1    1004.9  1002.6         
04:54 23.03 З  8
{17} 
16 км    ясно  +3.9  -4.4  55  -2  -2    1005.3  1003.3  +3.9  +5.6     
05:54 23.03 З  10
{17} 
16 км    ясно  +2.8  -4.4  59  -4  -4    1006.1  1004.0         
06:54 23.03 З  11
{17} 
16 км    8/0 2100 м
[средняя] 
+2.2  -5.0  59  -6  -6    1006.5  1004.3         
07:54 23.03 З  10
{16} 
16 км    10/0 2700 м
[средняя] 
+2.2  -5.0  59  -5  -5    1007.3  1005.3         
08:54 23.03 З  9
{16} 
16 км    5/0 3600 м
[средняя] 
+1.7  -5.0  61  -6  -6    1008.3  1006.0         
09:54 23.03 З  8
{16} 
16 км    ясно  +1.7  -5.0  61  -5  -5    1009.6  1007.3         
10:54 23.03 З  9
{16} 
16 км    ясно  +2.2  -5.0  59  -5  -5    1010.8  1008.7  +1.7  +3.9     
11:54 23.03 З  11
{15} 
16 км    ясно  +3.9  -4.4  55  -3  -3    1011.7  1009.7         
12:54 23.03 СЗ  13
{17} 
16 км    ясно  +5.0  -3.9  53  -2  -2    1012.3  1010.0         
13:54 23.03 СЗ  10
{17} 
16 км    ясно  +6.7  -3.9  47  +1  +1    1013.3  1011.0         
14:54 23.03 З  9
{17} 
16 км    ясно  +7.8  -3.9  43  +3  +3    1014.2  1012.1         
15:54 23.03 З  10
{16} 
16 км    ясно  +8.3  -5.0  39  +4  +4    1014.7  1012.4         
16:54 23.03 З  11
{17} 
16 км    ясно  +9.4  -6.1  33  +5  +5    1014.7  1012.7  +2.2  +9.4     
17:54 23.03 З  13
{17} 
16 км    ясно  +10.0  -7.2  29  +5  +5    1014.8  1012.7         
18:54 23.03 СЗ  11
{17} 
16 км    ясно  +11.1  -8.3  25  +7  +7    1015.4  1013.4         
19:54 23.03 СЗ  13
{17} 
16 км    ясно  +11.1  -8.9  24  +7  +7    1016.0  1013.8         
20:54 23.03 СЗ  9
{17} 
16 км    ясно  +10.6  -9.4  24  +7  +7    1016.9  1014.8         
21:54 23.03 З  8
{14} 
16 км    ясно  +9.4  -9.4  25  +6  +6    1018.3  1016.1         
22:54 23.03 З  7
{10} 
16 км    ясно  +8.3  -8.9  29  +5  +5    1019.6  1017.5  +8.3  +11.1     
23:54 23.03 З  16 км    ясно  +8.3  -8.9  29  +5  +5    1020.7  1018.5         
00:54 24.03 З  16 км    ясно  +7.2  -8.9  31  +3  +3    1021.2  1019.2         
01:54 24.03 З  16 км    ясно  +6.1  -8.3  35  +2  +2    1021.5  1019.2         

 

Местоположение метеостанции Atlantic City International Airport: широта 39.4520 долгота -74.5670 высота над уровнем моря 17 м.

В архиве по умолчанию представлена погода в Атлантик-Сити за последние 1-2 суток. Обновление информации о фактической погоде в базе происходит ежечасно! Архивные данные за месяц целиком и за предыдущие месяцы Вы можете получить, выбрав интересующий диапазон дат из раскрывающегося списка и нажав кнопку "Ввод!".

Внимание! Архив погоды МЕТАР в базе сайта в настоящее время начинается c 1 января 2011 г. Нет смысла пытаться выбрать более раннюю дату.

Внимание! Время в таблицах - всемирное. Для получения местного времени необходимо прибавить поправку, которая в Атлантик-Сити равна -5 ч.

Ветер - указаны скорость ветра в м/с и направление, откуда дует ветер: С - северный, СВ - северо-восточный, В - восточный, ЮВ - юго-восточный, Ю - южный, ЮЗ - юго-западный, З - западный, СЗ - северо-западный.
Видимость - горизонтальная дальность видимости в метрах или километрах. При видимости от 1 до 10 км при отсутствии осадков обычно наблюдается дымка, при ухудшении видимости до 1 км и менее - туман. В сухую погоду видимость может ухудшаться дымом, пылью или мглою.
Атмосферные явления - указаны явления, наблюдавшиеся в указанный момент времени.
Облачность - указаны через наклонную черту верхняя и нижняя облачность в баллах и высота нижней границы облаков в метрах. Внимание: облачность, как и прочие метеорологические величины в США измеряются автоматическими метеостанциями. Указанные значения в баллах носят условный характер и показывают процент времени, в течение которого, в среднем, лазерный луч высотомера отражался от облаков обратно.
T - Температура воздуха - температура, измеренная на высоте 2 м над землей.
Td - Температура точки росы - температура, при понижении до которой содержащийся в воздухе водяной пар достигнет насыщения.
f - Относительная влажность воздуха - влажноcть воздуха, измеренная на высоте 2 м над землей.
Te - Эффективная температура - температура, которую ощущает одетый по сезону человек в тени. Характеристика душности погоды. При расчете учитывается влияние влажности воздуха и скорости ветра на теплоощущения человека.
Tes - Эффективная температура на солнце - температура, которую ощущает человек, с поправкой на солнечный нагрев. Характеристика знойности погоды. Зависит от высоты солнца над горизонтом, облачности и скорости ветра. Ночью, в пасмурную погоду, а также при ветре 12 м/с и более поправка равна нулю.
P - Атмосферное давление - приведенное к уровню моря атмосферное давление.
Po - Атмосферное давление - измеренное на уровне метеостанции атмосферное давление.
Tmin - Минимальная температура - минимум температуры воздуха на высоте 2 м над землей.
Tmax - Максимальная температура - максимум температуры воздуха на высоте 2 м над землей.
R - Количество осадков - Количество выпавших осадков за 3 или 6 часов, мм.
SD - Снежный покров - Высота снежного покрова, см.